Back to catalog

FLOCK 4H 33

AliveScienceSSO
NORAD 66736·PAYLOAD·🇺🇸 United States

Launched Nov 28, 2025 from Vandenberg Space Force Base

Loading…

Next Passes (next 24 hours)

TLE

FreshSource: CelesTrak SupGP

Epoch: Sep 14, 2026, 06:45 UTC

1 66736C 25276BY  26257.28140046  .00003497  00000+0  15441-3 0  2574
2 66736  97.4148 329.8888 0002166  32.1065  75.4142 15.21811457    10

Track FLOCK 4H 33 in real time with AllMySat

Download on the App Store